owner,sensor,date,latitude,longitude,vertical_datum,wind_speed,wind_to_direction,wind_speed_of_gust,qcFlag 
DISL,ioos:station:DISL:DISL:1,2014-01-01T06:30:00Z,30.2513,-88.0778,9.68,4.8,64.43,-9999.0,'1111122,1111122,1111122' 
DISL,ioos:station:DISL:DISL:1,2014-01-01T07:00:00Z,30.2513,-88.0778,9.68,4.69,55.69,-9999.0,'1111122,1111122,1111122' 
DISL,ioos:station:DISL:DISL:1,2014-01-01T07:30:00Z,30.2513,-88.0778,9.68,4.25,55.38,-9999.0,'1111122,1111122,1111122' 
DISL,ioos:station:DISL:DISL:1,2014-01-01T08:00:00Z,30.2513,-88.0778,9.68,4.49,61.24,-9999.0,'1111122,1111122,1111122' 
DISL,ioos:station:DISL:DISL:1,2014-01-01T08:30:00Z,30.2513,-88.0778,9.68,4.3,63.12,-9999.0,'1111122,1111122,1111122' 
DISL,ioos:station:DISL:DISL:1,2014-01-01T09:00:00Z,30.2513,-88.0778,9.68,4.22,68.34,-9999.0,'1111122,1111122,1111122' 
DISL,ioos:station:DISL:DISL:1,2014-01-01T09:30:00Z,30.2513,-88.0778,9.68,4.13,81.9,-9999.0,'1111122,1111122,1111122' 
DISL,ioos:station:DISL:DISL:1,2014-01-01T10:00:00Z,30.2513,-88.0778,9.68,3.97,79.91,-9999.0,'1111122,1111122,1111122' 
DISL,ioos:station:DISL:DISL:1,2014-01-01T10:30:00Z,30.2513,-88.0778,9.68,4.23,89.8,-9999.0,'1111122,1111122,1111122' 
DISL,ioos:station:DISL:DISL:1,2014-01-01T11:00:00Z,30.2513,-88.0778,9.68,3.83,87.2,-9999.0,'1111122,1111122,1111122' 
DISL,ioos:station:DISL:DISL:1,2014-01-01T11:30:00Z,30.2513,-88.0778,9.68,3.21,56.65,-9999.0,'1111122,1111122,1111122' 
DISL,ioos:station:DISL:DISL:1,2014-01-01T12:00:00Z,30.2513,-88.0778,9.68,4.6,47.07,-9999.0,'1111122,1111122,1111122' 
DISL,ioos:station:DISL:DISL:1,2014-01-01T13:30:00Z,30.2513,-88.0778,9.68,4.17,56.57,-9999.0,'1111122,1111122,1111122' 
DISL,ioos:station:DISL:DISL:1,2014-01-01T14:00:00Z,30.2513,-88.0778,9.68,4.79,78.87,-9999.0,'1111122,1111122,1111122' 
DISL,ioos:station:DISL:DISL:1,2014-01-01T14:30:00Z,30.2513,-88.0778,9.68,4.55,80.7,-9999.0,'1111122,1111122,1111122' 
DISL,ioos:station:DISL:DISL:1,2014-01-01T15:00:00Z,30.2513,-88.0778,9.68,5.14,90.3,-9999.0,'1111122,1111122,1111122' 
DISL,ioos:station:DISL:DISL:1,2014-01-01T15:30:00Z,30.2513,-88.0778,9.68,4.56,86.5,-9999.0,'1111122,1111122,1111122' 
DISL,ioos:station:DISL:DISL:1,2014-01-01T16:00:00Z,30.2513,-88.0778,9.68,3.63,52.61,-9999.0,'1111122,1111122,1111122' 
DISL,ioos:station:DISL:DISL:1,2014-01-01T16:30:00Z,30.2513,-88.0778,9.68,3.74,60.84,-9999.0,'1111122,1111122,1111122' 
DISL,ioos:station:DISL:DISL:1,2014-01-01T17:00:00Z,30.2513,-88.0778,9.68,3.39,53.03,-9999.0,'1111122,1111122,1111122' 
DISL,ioos:station:DISL:DISL:1,2014-01-01T17:30:00Z,30.2513,-88.0778,9.68,2.93,53.86,-9999.0,'1111122,1111122,1111122' 
DISL,ioos:station:DISL:DISL:1,2014-01-01T18:00:00Z,30.2513,-88.0778,9.68,2.68,34.05,-9999.0,'1111122,1111122,1111122' 
DISL,ioos:station:DISL:DISL:1,2014-01-01T18:30:00Z,30.2513,-88.0778,9.68,2.63,61.26,-9999.0,'1111122,1111122,1111122' 
DISL,ioos:station:DISL:DISL:1,2014-01-01T19:00:00Z,30.2513,-88.0778,9.68,1.7,33.58,-9999.0,'1111122,1111122,1111122' 
DISL,ioos:station:DISL:DISL:1,2014-01-01T19:30:00Z,30.2513,-88.0778,9.68,1.36,338.6,-9999.0,'1111122,1111122,1111122' 
DISL,ioos:station:DISL:DISL:1,2014-01-01T20:00:00Z,30.2513,-88.0778,9.68,0.94,45.49,-9999.0,'1111122,1111122,1111122' 
DISL,ioos:station:DISL:DISL:1,2014-01-01T20:30:00Z,30.2513,-88.0778,9.68,1.37,342.5,-9999.0,'1111122,1111122,1111122' 
DISL,ioos:station:DISL:DISL:1,2014-01-01T21:00:00Z,30.2513,-88.0778,9.68,0.97,4.706,-9999.0,'1111122,1111122,1111122' 
DISL,ioos:station:DISL:DISL:1,2014-01-01T21:30:00Z,30.2513,-88.0778,9.68,1.28,0.96,-9999.0,'1111122,1111122,1111122' 
DISL,ioos:station:DISL:DISL:1,2014-01-01T22:00:00Z,30.2513,-88.0778,9.68,2.25,63.8,-9999.0,'1111122,1111122,1111122' 
DISL,ioos:station:DISL:DISL:1,2014-01-01T22:30:00Z,30.2513,-88.0778,9.68,3.07,84.9,-9999.0,'1111122,1111122,1111122' 
DISL,ioos:station:DISL:DISL:1,2014-01-01T23:00:00Z,30.2513,-88.0778,9.68,2.23,91.1,-9999.0,'1111122,1111122,1111122' 
DISL,ioos:station:DISL:DISL:1,2014-01-01T23:30:00Z,30.2513,-88.0778,9.68,1.38,35.84,-9999.0,'1111122,1111122,1111122' 
DISL,ioos:station:DISL:DISL:1,2014-01-02T00:00:00Z,30.2513,-88.0778,9.68,1.98,71.2,-9999.0,'1111122,1111122,1111122' 
DISL,ioos:station:DISL:DISL:1,2014-01-02T00:30:00Z,30.2513,-88.0778,9.68,0.95,332.8,-9999.0,'1111122,1111122,1111122' 
DISL,ioos:station:DISL:DISL:1,2014-01-02T01:00:00Z,30.2513,-88.0778,9.68,1.28,65.88,-9999.0,'1111122,1111122,1111122' 
DISL,ioos:station:DISL:DISL:1,2014-01-02T01:30:00Z,30.2513,-88.0778,9.68,3.07,75.29,-9999.0,'1111122,1111122,1111122' 
DISL,ioos:station:DISL:DISL:1,2014-01-02T02:00:00Z,30.2513,-88.0778,9.68,3.27,69.33,-9999.0,'1111122,1111122,1111122' 
DISL,ioos:station:DISL:DISL:1,2014-01-02T02:30:00Z,30.2513,-88.0778,9.68,4.12,86.7,-9999.0,'1111122,1111122,1111122' 
DISL,ioos:station:DISL:DISL:1,2014-01-02T03:00:00Z,30.2513,-88.0778,9.68,4.56,95.1,-9999.0,'1111122,1111122,1111122' 
DISL,ioos:station:DISL:DISL:1,2014-01-02T03:30:00Z,30.2513,-88.0778,9.68,4.28,83.2,-9999.0,'1111122,1111122,1111122' 
DISL,ioos:station:DISL:DISL:1,2014-01-02T04:00:00Z,30.2513,-88.0778,9.68,5.13,76.09,-9999.0,'1111122,1111122,1111122' 
DISL,ioos:station:DISL:DISL:1,2014-01-02T04:30:00Z,30.2513,-88.0778,9.68,6.72,84.4,-9999.0,'1111122,1111122,1111122' 
DISL,ioos:station:DISL:DISL:1,2014-01-02T05:00:00Z,30.2513,-88.0778,9.68,7.07,96.0,-9999.0,'1111122,1111122,1111122' 
DISL,ioos:station:DISL:DISL:1,2014-01-02T05:30:00Z,30.2513,-88.0778,9.68,3.59,68.37,-9999.0,'1111122,1111122,1111122' 
DISL,ioos:station:DISL:DISL:1,2014-01-02T06:00:00Z,30.2513,-88.0778,9.68,4.2,19.73,-9999.0,'1111122,1111122,1111122' 
DISL,ioos:station:DISL:DISL:1,2014-01-02T06:30:00Z,30.2513,-88.0778,9.68,4.53,34.36,-9999.0,'1111122,1111122,1111122' 
DISL,ioos:station:DISL:DISL:1,2014-01-02T07:00:00Z,30.2513,-88.0778,9.68,2.03,29.86,-9999.0,'1111122,1111122,1111122' 
DISL,ioos:station:DISL:DISL:1,2014-01-02T07:30:00Z,30.2513,-88.0778,9.68,3.07,13.39,-9999.0,'1111122,1111122,1111122' 
DISL,ioos:station:DISL:DISL:1,2014-01-02T08:00:00Z,30.2513,-88.0778,9.68,3.3,41.27,-9999.0,'1111122,1111122,1111122' 
DISL,ioos:station:DISL:DISL:1,2014-01-02T08:30:00Z,30.2513,-88.0778,9.68,1.74,41.04,-9999.0,'1111122,1111122,1111122' 
DISL,ioos:station:DISL:DISL:1,2014-01-02T09:00:00Z,30.2513,-88.0778,9.68,4.57,102.8,-9999.0,'1111122,1111122,1111122' 
DISL,ioos:station:DISL:DISL:1,2014-01-02T09:30:00Z,30.2513,-88.0778,9.68,3.25,82.7,-9999.0,'1111122,1111122,1111122' 
DISL,ioos:station:DISL:DISL:1,2014-01-02T10:00:00Z,30.2513,-88.0778,9.68,2.45,84.1,-9999.0,'1111122,1111122,1111122' 
DISL,ioos:station:DISL:DISL:1,2014-01-02T10:30:00Z,30.2513,-88.0778,9.68,1.67,55.27,-9999.0,'1111122,1111122,1111122' 
DISL,ioos:station:DISL:DISL:1,2014-01-02T11:00:00Z,30.2513,-88.0778,9.68,3.53,71.72,-9999.0,'1111122,1111122,1111122' 
DISL,ioos:station:DISL:DISL:1,2014-01-02T11:30:00Z,30.2513,-88.0778,9.68,2.44,53.12,-9999.0,'1111122,1111122,1111122' 
DISL,ioos:station:DISL:DISL:1,2014-01-02T12:00:00Z,30.2513,-88.0778,9.68,2.22,65.49,-9999.0,'1111122,1111122,1111122' 
DISL,ioos:station:DISL:DISL:1,2014-01-02T12:30:00Z,30.2513,-88.0778,9.68,3.4,87.9,-9999.0,'1111122,1111122,1111122' 
DISL,ioos:station:DISL:DISL:1,2014-01-02T13:00:00Z,30.2513,-88.0778,9.68,1.38,111.6,-9999.0,'1111122,1111122,1111122' 
DISL,ioos:station:DISL:DISL:1,2014-01-02T13:30:00Z,30.2513,-88.0778,9.68,1.8,118.0,-9999.0,'1111122,1111122,1111122' 
DISL,ioos:station:DISL:DISL:1,2014-01-02T14:00:00Z,30.2513,-88.0778,9.68,3.61,285.9,-9999.0,'1111122,1111122,1111122' 
DISL,ioos:station:DISL:DISL:1,2014-01-02T14:30:00Z,30.2513,-88.0778,9.68,4.37,286.6,-9999.0,'1111122,1111122,1111122' 
DISL,ioos:station:DISL:DISL:1,2014-01-02T15:00:00Z,30.2513,-88.0778,9.68,4.36,300.3,-9999.0,'1111122,1111122,1111122' 
DISL,ioos:station:DISL:DISL:1,2014-01-02T15:30:00Z,30.2513,-88.0778,9.68,3.08,295.5,-9999.0,'1111122,1111122,1111122' 
DISL,ioos:station:DISL:DISL:1,2014-01-02T16:00:00Z,30.2513,-88.0778,9.68,3.31,290.0,-9999.0,'1111122,1111122,1111122' 
DISL,ioos:station:DISL:DISL:1,2014-01-02T16:30:00Z,30.2513,-88.0778,9.68,5.45,300.4,-9999.0,'1111122,1111122,1111122' 
DISL,ioos:station:DISL:DISL:1,2014-01-02T17:00:00Z,30.2513,-88.0778,9.68,6.86,305.8,-9999.0,'1111122,1111122,1111122' 
DISL,ioos:station:DISL:DISL:1,2014-01-02T17:30:00Z,30.2513,-88.0778,9.68,7.5,312.3,-9999.0,'1111122,1111122,1111122' 
DISL,ioos:station:DISL:DISL:1,2014-01-02T18:00:00Z,30.2513,-88.0778,9.68,7.63,315.1,-9999.0,'1111122,1111122,1111122' 
DISL,ioos:station:DISL:DISL:1,2014-01-02T18:30:00Z,30.2513,-88.0778,9.68,8.81,311.9,-9999.0,'1111122,1111122,1111122' 
DISL,ioos:station:DISL:DISL:1,2014-01-02T19:00:00Z,30.2513,-88.0778,9.68,9.54,315.5,-9999.0,'1111122,1111122,1111122' 
DISL,ioos:station:DISL:DISL:1,2014-01-02T19:30:00Z,30.2513,-88.0778,9.68,8.52,324.5,-9999.0,'1111122,1111122,1111122' 
DISL,ioos:station:DISL:DISL:1,2014-01-02T20:00:00Z,30.2513,-88.0778,9.68,9.07,315.3,-9999.0,'1111122,1111122,1111122' 
DISL,ioos:station:DISL:DISL:1,2014-01-02T20:30:00Z,30.2513,-88.0778,9.68,12.34,321.9,-9999.0,'1111122,1111122,1111122' 
DISL,ioos:station:DISL:DISL:1,2014-01-02T21:00:00Z,30.2513,-88.0778,9.68,10.24,323.3,-9999.0,'1111122,1111122,1111122' 
DISL,ioos:station:DISL:DISL:1,2014-01-02T21:30:00Z,30.2513,-88.0778,9.68,11.93,322.6,-9999.0,'1111122,1111122,1111122' 
DISL,ioos:station:DISL:DISL:1,2014-01-02T22:00:00Z,30.2513,-88.0778,9.68,11.06,326.3,-9999.0,'1111122,1111122,1111122' 
DISL,ioos:station:DISL:DISL:1,2014-01-02T22:30:00Z,30.2513,-88.0778,9.68,11.81,325.8,-9999.0,'1111122,1111122,1111122' 
DISL,ioos:station:DISL:DISL:1,2014-01-02T23:00:00Z,30.2513,-88.0778,9.68,12.07,328.4,-9999.0,'1111122,1111122,1111122' 
DISL,ioos:station:DISL:DISL:1,2014-01-02T23:30:00Z,30.2513,-88.0778,9.68,11.69,331.4,-9999.0,'1111122,1111122,1111122' 
DISL,ioos:station:DISL:DISL:1,2014-01-03T00:00:00Z,30.2513,-88.0778,9.68,11.78,329.9,-9999.0,'1111122,1111122,1111122' 
DISL,ioos:station:DISL:DISL:1,2014-01-03T00:30:00Z,30.2513,-88.0778,9.68,11.71,331.4,-9999.0,'1111122,1111122,1111122' 
DISL,ioos:station:DISL:DISL:1,2014-01-03T01:00:00Z,30.2513,-88.0778,9.68,11.23,336.8,-9999.0,'1111122,1111122,1111122' 
DISL,ioos:station:DISL:DISL:1,2014-01-03T01:30:00Z,30.2513,-88.0778,9.68,11.79,336.1,-9999.0,'1111122,1111122,1111122' 
DISL,ioos:station:DISL:DISL:1,2014-01-03T02:00:00Z,30.2513,-88.0778,9.68,11.34,339.5,-9999.0,'1111122,1111122,1111122' 
DISL,ioos:station:DISL:DISL:1,2014-01-03T02:30:00Z,30.2513,-88.0778,9.68,12.45,337.5,-9999.0,'1111122,1111122,1111122' 
DISL,ioos:station:DISL:DISL:1,2014-01-03T03:00:00Z,30.2513,-88.0778,9.68,11.43,339.8,-9999.0,'1111122,1111122,1111122' 
DISL,ioos:station:DISL:DISL:1,2014-01-03T03:30:00Z,30.2513,-88.0778,9.68,12.24,340.8,-9999.0,'1111122,1111122,1111122' 
DISL,ioos:station:DISL:DISL:1,2014-01-03T04:00:00Z,30.2513,-88.0778,9.68,11.44,337.9,-9999.0,'1111122,1111122,1111122' 
DISL,ioos:station:DISL:DISL:1,2014-01-03T04:30:00Z,30.2513,-88.0778,9.68,10.84,336.2,-9999.0,'1111122,1111122,1111122' 
DISL,ioos:station:DISL:DISL:1,2014-01-03T05:00:00Z,30.2513,-88.0778,9.68,11.6,334.6,-9999.0,'1111122,1111122,1111122' 
DISL,ioos:station:DISL:DISL:1,2014-01-03T05:30:00Z,30.2513,-88.0778,9.68,11.01,332.5,-9999.0,'1111122,1111122,1111122' 
DISL,ioos:station:DISL:DISL:1,2014-01-03T06:00:00Z,30.2513,-88.0778,9.68,10.48,335.3,-9999.0,'1111122,1111122,1111122' 
DISL,ioos:station:DISL:DISL:1,2014-01-03T06:30:00Z,30.2513,-88.0778,9.68,10.66,336.9,-9999.0,'1111122,1111122,1111122' 
DISL,ioos:station:DISL:DISL:1,2014-01-03T07:00:00Z,30.2513,-88.0778,9.68,11.33,341.2,-9999.0,'1111122,1111122,1111122' 
DISL,ioos:station:DISL:DISL:1,2014-01-03T07:30:00Z,30.2513,-88.0778,9.68,11.12,333.5,-9999.0,'1111122,1111122,1111122' 
DISL,ioos:station:DISL:DISL:1,2014-01-03T08:00:00Z,30.2513,-88.0778,9.68,11.91,337.2,-9999.0,'1111122,1111122,1111122' 
DISL,ioos:station:DISL:DISL:1,2014-01-03T08:30:00Z,30.2513,-88.0778,9.68,10.88,338.6,-9999.0,'1111122,1111122,1111122' 
DISL,ioos:station:DISL:DISL:1,2014-01-03T09:00:00Z,30.2513,-88.0778,9.68,11.11,340.0,-9999.0,'1111122,1111122,1111122' 
DISL,ioos:station:DISL:DISL:1,2014-01-03T09:30:00Z,30.2513,-88.0778,9.68,11.12,342.2,-9999.0,'1111122,1111122,1111122' 
DISL,ioos:station:DISL:DISL:1,2014-01-03T10:00:00Z,30.2513,-88.0778,9.68,11.99,352.4,-9999.0,'1111122,1111122,1111122' 
DISL,ioos:station:DISL:DISL:1,2014-01-03T10:30:00Z,30.2513,-88.0778,9.68,11.38,354.5,-9999.0,'1111122,1111122,1111122' 
DISL,ioos:station:DISL:DISL:1,2014-01-03T11:00:00Z,30.2513,-88.0778,9.68,11.57,355.0,-9999.0,'1111122,1111122,1111122' 
DISL,ioos:station:DISL:DISL:1,2014-01-03T11:30:00Z,30.2513,-88.0778,9.68,11.79,359.7,-9999.0,'1111122,1111122,1111122' 
DISL,ioos:station:DISL:DISL:1,2014-01-03T12:00:00Z,30.2513,-88.0778,9.68,11.5,359.4,-9999.0,'1111122,1111122,1111122' 
DISL,ioos:station:DISL:DISL:1,2014-01-03T12:30:00Z,30.2513,-88.0778,9.68,10.35,1.906,-9999.0,'1111122,1111122,1111122' 
DISL,ioos:station:DISL:DISL:1,2014-01-03T13:00:00Z,30.2513,-88.0778,9.68,10.95,3.779,-9999.0,'1111122,1111122,1111122' 
DISL,ioos:station:DISL:DISL:1,2014-01-03T13:30:00Z,30.2513,-88.0778,9.68,10.83,2.812,-9999.0,'1111122,1111122,1111122' 
DISL,ioos:station:DISL:DISL:1,2014-01-03T14:00:00Z,30.2513,-88.0778,9.68,10.04,4.915,-9999.0,'1111122,1111122,1111122' 
DISL,ioos:station:DISL:DISL:1,2014-01-03T14:30:00Z,30.2513,-88.0778,9.68,10.16,14.87,-9999.0,'1111122,1111122,1111122' 
DISL,ioos:station:DISL:DISL:1,2014-01-03T15:00:00Z,30.2513,-88.0778,9.68,11.88,11.79,-9999.0,'1111122,1111122,1111122' 
DISL,ioos:station:DISL:DISL:1,2014-01-03T15:30:00Z,30.2513,-88.0778,9.68,11.77,14.55,-9999.0,'1111122,1111122,1111122' 
DISL,ioos:station:DISL:DISL:1,2014-01-03T16:00:00Z,30.2513,-88.0778,9.68,11.14,15.65,-9999.0,'1111122,1111122,1111122' 
DISL,ioos:station:DISL:DISL:1,2014-01-03T16:30:00Z,30.2513,-88.0778,9.68,9.53,15.1,-9999.0,'1111122,1111122,1111122' 
DISL,ioos:station:DISL:DISL:1,2014-01-03T17:00:00Z,30.2513,-88.0778,9.68,9.17,15.28,-9999.0,'1111122,1111122,1111122' 
DISL,ioos:station:DISL:DISL:1,2014-01-03T17:30:00Z,30.2513,-88.0778,9.68,8.64,13.32,-9999.0,'1111122,1111122,1111122' 
DISL,ioos:station:DISL:DISL:1,2014-01-03T18:00:00Z,30.2513,-88.0778,9.68,8.31,9.0,-9999.0,'1111122,1111122,1111122' 
DISL,ioos:station:DISL:DISL:1,2014-01-03T18:30:00Z,30.2513,-88.0778,9.68,8.16,4.916,-9999.0,'1111122,1111122,1111122' 
DISL,ioos:station:DISL:DISL:1,2014-01-03T19:00:00Z,30.2513,-88.0778,9.68,8.76,1.687,-9999.0,'1111122,1111122,1111122' 
DISL,ioos:station:DISL:DISL:1,2014-01-03T19:30:00Z,30.2513,-88.0778,9.68,8.6,6.59,-9999.0,'1111122,1111122,1111122' 
DISL,ioos:station:DISL:DISL:1,2014-01-03T20:00:00Z,30.2513,-88.0778,9.68,8.08,4.263,-9999.0,'1111122,1111122,1111122' 
DISL,ioos:station:DISL:DISL:1,2014-01-03T20:30:00Z,30.2513,-88.0778,9.68,7.43,14.86,-9999.0,'1111122,1111122,1111122' 
DISL,ioos:station:DISL:DISL:1,2014-01-03T21:00:00Z,30.2513,-88.0778,9.68,7.58,7.756,-9999.0,'1111122,1111122,1111122' 
DISL,ioos:station:DISL:DISL:1,2014-01-03T21:30:00Z,30.2513,-88.0778,9.68,6.89,0.017,-9999.0,'1111122,1111122,1111122' 
DISL,ioos:station:DISL:DISL:1,2014-01-03T22:00:00Z,30.2513,-88.0778,9.68,7.31,354.7,-9999.0,'1111122,1111122,1111122' 
DISL,ioos:station:DISL:DISL:1,2014-01-03T22:30:00Z,30.2513,-88.0778,9.68,7.57,2.112,-9999.0,'1111122,1111122,1111122' 
DISL,ioos:station:DISL:DISL:1,2014-01-03T23:00:00Z,30.2513,-88.0778,9.68,7.25,357.6,-9999.0,'1111122,1111122,1111122' 
DISL,ioos:station:DISL:DISL:1,2014-01-03T23:30:00Z,30.2513,-88.0778,9.68,7.41,0.693,-9999.0,'1111122,1111122,1111122' 
DISL,ioos:station:DISL:DISL:1,2014-01-04T00:00:00Z,30.2513,-88.0778,9.68,7.36,3.996,-9999.0,'1111122,1111122,1111122' 
DISL,ioos:station:DISL:DISL:1,2014-01-04T00:30:00Z,30.2513,-88.0778,9.68,7.21,16.05,-9999.0,'1111122,1111122,1111122' 
DISL,ioos:station:DISL:DISL:1,2014-01-04T01:00:00Z,30.2513,-88.0778,9.68,6.34,26.19,-9999.0,'1111122,1111122,1111122' 
DISL,ioos:station:DISL:DISL:1,2014-01-04T01:30:00Z,30.2513,-88.0778,9.68,7.21,34.33,-9999.0,'1111122,1111122,1111122' 
DISL,ioos:station:DISL:DISL:1,2014-01-04T02:00:00Z,30.2513,-88.0778,9.68,7.68,42.81,-9999.0,'1111122,1111122,1111122' 
DISL,ioos:station:DISL:DISL:1,2014-01-04T02:30:00Z,30.2513,-88.0778,9.68,7.24,48.03,-9999.0,'1111122,1111122,1111122' 
DISL,ioos:station:DISL:DISL:1,2014-01-04T03:00:00Z,30.2513,-88.0778,9.68,7.52,59.44,-9999.0,'1111122,1111122,1111122' 
DISL,ioos:station:DISL:DISL:1,2014-01-04T03:30:00Z,30.2513,-88.0778,9.68,7.9,69.5,-9999.0,'1111122,1111122,1111122' 
DISL,ioos:station:DISL:DISL:1,2014-01-04T04:00:00Z,30.2513,-88.0778,9.68,8.06,67.83,-9999.0,'1111122,1111122,1111122' 
DISL,ioos:station:DISL:DISL:1,2014-01-04T04:30:00Z,30.2513,-88.0778,9.68,7.93,67.93,-9999.0,'1111122,1111122,1111122' 
DISL,ioos:station:DISL:DISL:1,2014-01-04T05:00:00Z,30.2513,-88.0778,9.68,8.63,62.17,-9999.0,'1111122,1111122,1111122' 
DISL,ioos:station:DISL:DISL:1,2014-01-04T05:30:00Z,30.2513,-88.0778,9.68,8.74,60.73,-9999.0,'1111122,1111122,1111122' 
DISL,ioos:station:DISL:DISL:1,2014-01-04T06:00:00Z,30.2513,-88.0778,9.68,8.15,64.18,-9999.0,'1111122,1111122,1111122' 
DISL,ioos:station:DISL:DISL:1,2014-01-04T06:30:00Z,30.2513,-88.0778,9.68,7.85,60.59,-9999.0,'1111122,1111122,1111122' 
DISL,ioos:station:DISL:DISL:1,2014-01-04T07:00:00Z,30.2513,-88.0778,9.68,7.87,57.9,-9999.0,'1111122,1111122,1111122' 
DISL,ioos:station:DISL:DISL:1,2014-01-04T07:30:00Z,30.2513,-88.0778,9.68,8.12,57.75,-9999.0,'1111122,1111122,1111122' 
DISL,ioos:station:DISL:DISL:1,2014-01-04T08:00:00Z,30.2513,-88.0778,9.68,8.32,61.78,-9999.0,'1111122,1111122,1111122' 
DISL,ioos:station:DISL:DISL:1,2014-01-04T08:30:00Z,30.2513,-88.0778,9.68,8.39,61.81,-9999.0,'1111122,1111122,1111122' 
DISL,ioos:station:DISL:DISL:1,2014-01-04T09:00:00Z,30.2513,-88.0778,9.68,8.43,63.36,-9999.0,'1111122,1111122,1111122' 
DISL,ioos:station:DISL:DISL:1,2014-01-04T09:30:00Z,30.2513,-88.0778,9.68,8.27,64.43,-9999.0,'1111122,1111122,1111122' 
DISL,ioos:station:DISL:DISL:1,2014-01-04T10:00:00Z,30.2513,-88.0778,9.68,8.32,68.6,-9999.0,'1111122,1111122,1111122' 
DISL,ioos:station:DISL:DISL:1,2014-01-04T10:30:00Z,30.2513,-88.0778,9.68,8.68,68.95,-9999.0,'1111122,1111122,1111122' 
DISL,ioos:station:DISL:DISL:1,2014-01-04T11:00:00Z,30.2513,-88.0778,9.68,8.4,64.35,-9999.0,'1111122,1111122,1111122' 
DISL,ioos:station:DISL:DISL:1,2014-01-04T11:30:00Z,30.2513,-88.0778,9.68,8.25,67.85,-9999.0,'1111122,1111122,1111122' 
DISL,ioos:station:DISL:DISL:1,2014-01-04T12:00:00Z,30.2513,-88.0778,9.68,8.63,65.44,-9999.0,'1111122,1111122,1111122' 
DISL,ioos:station:DISL:DISL:1,2014-01-04T12:30:00Z,30.2513,-88.0778,9.68,8.28,62.77,-9999.0,'1111122,1111122,1111122' 
DISL,ioos:station:DISL:DISL:1,2014-01-04T13:00:00Z,30.2513,-88.0778,9.68,8.4,67.32,-9999.0,'1111122,1111122,1111122' 
DISL,ioos:station:DISL:DISL:1,2014-01-04T13:30:00Z,30.2513,-88.0778,9.68,9.19,70.84,-9999.0,'1111122,1111122,1111122' 
DISL,ioos:station:DISL:DISL:1,2014-01-04T14:00:00Z,30.2513,-88.0778,9.68,9.21,73.51,-9999.0,'1111122,1111122,1111122' 
DISL,ioos:station:DISL:DISL:1,2014-01-04T14:30:00Z,30.2513,-88.0778,9.68,8.75,75.92,-9999.0,'1111122,1111122,1111122' 
DISL,ioos:station:DISL:DISL:1,2014-01-04T15:00:00Z,30.2513,-88.0778,9.68,8.37,77.71,-9999.0,'1111122,1111122,1111122' 
DISL,ioos:station:DISL:DISL:1,2014-01-04T15:30:00Z,30.2513,-88.0778,9.68,8.85,73.85,-9999.0,'1111122,1111122,1111122' 
DISL,ioos:station:DISL:DISL:1,2014-01-04T16:00:00Z,30.2513,-88.0778,9.68,9.02,76.79,-9999.0,'1111122,1111122,1111122' 
DISL,ioos:station:DISL:DISL:1,2014-01-04T16:30:00Z,30.2513,-88.0778,9.68,8.32,71.43,-9999.0,'1111122,1111122,1111122' 
DISL,ioos:station:DISL:DISL:1,2014-01-04T17:00:00Z,30.2513,-88.0778,9.68,7.04,73.57,-9999.0,'1111122,1111122,1111122' 
DISL,ioos:station:DISL:DISL:1,2014-01-04T17:30:00Z,30.2513,-88.0778,9.68,6.32,75.41,-9999.0,'1111122,1111122,1111122' 
DISL,ioos:station:DISL:DISL:1,2014-01-04T18:00:00Z,30.2513,-88.0778,9.68,4.65,68.72,-9999.0,'1111122,1111122,1111122' 
DISL,ioos:station:DISL:DISL:1,2014-01-04T18:30:00Z,30.2513,-88.0778,9.68,6.46,75.6,-9999.0,'1111122,1111122,1111122' 
DISL,ioos:station:DISL:DISL:1,2014-01-04T19:00:00Z,30.2513,-88.0778,9.68,6.71,73.64,-9999.0,'1111122,1111122,1111122' 
DISL,ioos:station:DISL:DISL:1,2014-01-04T19:30:00Z,30.2513,-88.0778,9.68,5.81,78.11,-9999.0,'1111122,1111122,1111122' 
DISL,ioos:station:DISL:DISL:1,2014-01-04T20:00:00Z,30.2513,-88.0778,9.68,4.67,72.85,-9999.0,'1111122,1111122,1111122' 
DISL,ioos:station:DISL:DISL:1,2014-01-04T20:30:00Z,30.2513,-88.0778,9.68,5.38,78.36,-9999.0,'1111122,1111122,1111122' 
DISL,ioos:station:DISL:DISL:1,2014-01-04T21:00:00Z,30.2513,-88.0778,9.68,5.61,81.5,-9999.0,'1111122,1111122,1111122' 
DISL,ioos:station:DISL:DISL:1,2014-01-04T21:30:00Z,30.2513,-88.0778,9.68,5.37,88.2,-9999.0,'1111122,1111122,1111122' 
DISL,ioos:station:DISL:DISL:1,2014-01-04T22:00:00Z,30.2513,-88.0778,9.68,4.97,84.3,-9999.0,'1111122,1111122,1111122' 
DISL,ioos:station:DISL:DISL:1,2014-01-04T22:30:00Z,30.2513,-88.0778,9.68,4.79,90.0,-9999.0,'1111122,1111122,1111122' 
DISL,ioos:station:DISL:DISL:1,2014-01-04T23:00:00Z,30.2513,-88.0778,9.68,5.22,94.0,-9999.0,'1111122,1111122,1111122' 
DISL,ioos:station:DISL:DISL:1,2014-01-04T23:30:00Z,30.2513,-88.0778,9.68,4.67,98.5,-9999.0,'1111122,1111122,1111122' 
DISL,ioos:station:DISL:DISL:1,2014-01-05T00:00:00Z,30.2513,-88.0778,9.68,4.82,94.0,-9999.0,'1111122,1111122,1111122' 
DISL,ioos:station:DISL:DISL:1,2014-01-05T00:30:00Z,30.2513,-88.0778,9.68,5.19,89.5,-9999.0,'1111122,1111122,1111122' 
DISL,ioos:station:DISL:DISL:1,2014-01-05T01:00:00Z,30.2513,-88.0778,9.68,5.68,83.8,-9999.0,'1111122,1111122,1111122' 
DISL,ioos:station:DISL:DISL:1,2014-01-05T01:30:00Z,30.2513,-88.0778,9.68,4.45,84.5,-9999.0,'1111122,1111122,1111122' 
DISL,ioos:station:DISL:DISL:1,2014-01-05T02:00:00Z,30.2513,-88.0778,9.68,4.33,84.4,-9999.0,'1111122,1111122,1111122' 
DISL,ioos:station:DISL:DISL:1,2014-01-05T02:30:00Z,30.2513,-88.0778,9.68,5.08,90.6,-9999.0,'1111122,1111122,1111122' 
DISL,ioos:station:DISL:DISL:1,2014-01-05T03:00:00Z,30.2513,-88.0778,9.68,4.91,80.2,-9999.0,'1111122,1111122,1111122' 
DISL,ioos:station:DISL:DISL:1,2014-01-05T03:30:00Z,30.2513,-88.0778,9.68,5.73,73.74,-9999.0,'1111122,1111122,1111122' 
DISL,ioos:station:DISL:DISL:1,2014-01-05T04:00:00Z,30.2513,-88.0778,9.68,6.52,89.7,-9999.0,'1111122,1111122,1111122' 
DISL,ioos:station:DISL:DISL:1,2014-01-05T04:30:00Z,30.2513,-88.0778,9.68,7.23,89.2,-9999.0,'1111122,1111122,1111122' 
DISL,ioos:station:DISL:DISL:1,2014-01-05T05:00:00Z,30.2513,-88.0778,9.68,5.67,88.1,-9999.0,'1111122,1111122,1111122' 
DISL,ioos:station:DISL:DISL:1,2014-01-05T05:30:00Z,30.2513,-88.0778,9.68,6.21,79.77,-9999.0,'1111122,1111122,1111122' 
DISL,ioos:station:DISL:DISL:1,2014-01-05T06:00:00Z,30.2513,-88.0778,9.68,6.06,76.72,-9999.0,'1111122,1111122,1111122' 
DISL,ioos:station:DISL:DISL:1,2014-01-05T06:30:00Z,30.2513,-88.0778,9.68,6.68,74.36,-9999.0,'1111122,1111122,1111122' 
DISL,ioos:station:DISL:DISL:1,2014-01-05T07:00:00Z,30.2513,-88.0778,9.68,6.71,73.66,-9999.0,'1111122,1111122,1111122' 
DISL,ioos:station:DISL:DISL:1,2014-01-05T07:30:00Z,30.2513,-88.0778,9.68,4.82,66.6,-9999.0,'1111122,1111122,1111122' 
DISL,ioos:station:DISL:DISL:1,2014-01-05T08:00:00Z,30.2513,-88.0778,9.68,4.31,40.67,-9999.0,'1111122,1111122,1111122' 
DISL,ioos:station:DISL:DISL:1,2014-01-05T08:30:00Z,30.2513,-88.0778,9.68,4.34,54.15,-9999.0,'1111122,1111122,1111122' 
DISL,ioos:station:DISL:DISL:1,2014-01-05T09:00:00Z,30.2513,-88.0778,9.68,5.24,68.77,-9999.0,'1111122,1111122,1111122' 
DISL,ioos:station:DISL:DISL:1,2014-01-05T09:30:00Z,30.2513,-88.0778,9.68,4.01,38.81,-9999.0,'1111122,1111122,1111122' 
DISL,ioos:station:DISL:DISL:1,2014-01-05T10:00:00Z,30.2513,-88.0778,9.68,3.22,31.04,-9999.0,'1111122,1111122,1111122' 
DISL,ioos:station:DISL:DISL:1,2014-01-05T10:30:00Z,30.2513,-88.0778,9.68,1.33,340.6,-9999.0,'1111122,1111122,1111122' 
DISL,ioos:station:DISL:DISL:1,2014-01-05T11:00:00Z,30.2513,-88.0778,9.68,4.37,54.68,-9999.0,'1111122,1111122,1111122' 